Weather History for Ashtabula, OH

Change the Weather History Date:

Saturday, June 7, 2014

  Actual Average (KYNG) Record (KYNG)
Temperature  
Mean Temperature 63 °F 64 °F  
Max Temperature 79 °F 75 °F 92 °F (1942)
Min Temperature 48 °F 53 °F 35 °F (1958)
Degree Days  
Heating Degree Days 2 3  
Month to date heating degree days 28  
Since 1 June heating degree days 28  
Since 1 July heating degree days 6308  
Cooling Degree Days 0 2  
Month to date cooling degree days 14  
Year to date cooling degree days 53  
Since 1 June cooling degree days 14  
Growing Degree Days 13 (Base 50)    
Moisture  
Dew Point 46 °F    
Average Humidity 57    
Maximum Humidity 93    
Minimum Humidity 31    
Precipitation  
Precipitation 0.00 in 0.13 in 0.80 in (1993)
Month to date precipitation 0.90  
Year to date precipitation 15.69  
Snow  
Snow 0.00 in 0.00 in - ()
Month to date snowfall 0.0  
Since 1 June snowfall 0.0  
Since 1 July snowfall 62.7  
Snow Depth -    
Sea Level Pressure  
Sea Level Pressure 30.02 in    
Wind  
Wind Speed 2 mph (East)    
Max Wind Speed 10 mph    
Max Gust Speed -    
Visibility 10 miles    
Events      
T = Trace of Precipitation, MM = Missing Value Source: NWS Daily Summary

Daily Weather History Graph

Daily Weather History Graph

Search for Another Location

Airport:

Trip Planner

Search our weather history database for the weather conditions in past years. The results will help you decide how hot, cold, wet, or windy it might be!

Date:

Astronomy

Jun. 07, 2014 Rise Set
Actual Time 5:48 AM EDT 8:55 PM EDT
Civil Twilight 5:14 AM EDT 9:29 PM EDT
Nautical Twilight 4:31 AM EDT 10:12 PM EDT
Astronomical Twilight 3:39 AM EDT 11:04 PM EDT
Moon 3:07 PM EDT (6/7) 2:14 AM EDT (6/7)
Length of Visible Light 16h 14m
Length of Day
15h 07m
Waxing Gibbous, 67% of the Moon is Illuminated
Jun 7
Waxing Gibbous
Jun 13
Full
Jun 19
Last Quarter
Jun 27
New
Jul 5
First Quarter

Hourly Weather History & Observations

Time (EDT) Temp. Dew Point Humidity Pressure Visibility Wind Dir Wind Speed Gust Speed Precip Events Conditions
12:53 AM 50.0 °F 46.9 °F 89% 30.06 in 10.0 mi Calm Calm - N/A   Clear
1:53 AM 48.0 °F 46.0 °F 93% 30.04 in 10.0 mi Calm Calm - N/A   Clear
2:53 AM 48.9 °F 45.0 °F 86% 30.03 in 10.0 mi East 3.5 mph - N/A   Clear
3:53 AM 48.9 °F 45.0 °F 86% 30.03 in 10.0 mi Calm Calm - N/A   Clear
5:53 AM 48.0 °F 45.0 °F 89% 30.06 in 9.0 mi Calm Calm - N/A   Clear
6:53 AM 48.9 °F 46.0 °F 90% 30.07 in 10.0 mi West 3.5 mph - N/A   Clear
8:53 AM 62.1 °F 51.1 °F 67% 30.11 in 10.0 mi Calm Calm - N/A   Clear
9:53 AM 68.0 °F 46.9 °F 47% 30.12 in 10.0 mi Variable 3.5 mph - N/A   Clear
11:53 AM 73.0 °F 48.0 °F 41% 30.08 in 10.0 mi SSE 5.8 mph - N/A   Clear
12:53 PM 75.0 °F 45.0 °F 34% 30.05 in 10.0 mi ESE 10.4 mph - N/A   Clear
1:53 PM 75.9 °F 46.0 °F 35% 30.03 in 10.0 mi SSE 6.9 mph - N/A   Clear
2:53 PM 75.9 °F 44.1 °F 32% 30.01 in 10.0 mi Calm Calm - N/A   Clear
3:53 PM 78.1 °F 46.9 °F 33% 29.99 in 10.0 mi Variable 5.8 mph - N/A   Clear
4:53 PM 78.1 °F 45.0 °F 31% 29.99 in 10.0 mi Calm Calm - N/A   Clear
5:53 PM 75.0 °F 44.1 °F 33% 29.97 in 10.0 mi North 6.9 mph - N/A   Clear
6:53 PM 73.9 °F 46.0 °F 37% 29.98 in 10.0 mi NNE 6.9 mph - N/A   Clear
7:53 PM 71.1 °F 45.0 °F 39% 29.97 in 10.0 mi NE 4.6 mph - N/A   Clear
8:53 PM 66.0 °F 45.0 °F 47% 29.96 in 10.0 mi NE 3.5 mph - N/A   Clear
9:53 PM 60.1 °F 46.0 °F 60% 29.97 in 10.0 mi Calm Calm - N/A   Clear
10:53 PM 57.9 °F 46.0 °F 65% 29.96 in 10.0 mi East 3.5 mph - N/A   Clear
11:53 PM 57.0 °F 46.9 °F 69% 29.94 in 10.0 mi ESE 3.5 mph - N/A   Clear